User: anonymous   Login
Location: Unspecified
(0.0000°N, 0.0000°E)
Time: 17:26:30
(UTC+00:00)
Language:

DIAMOND RED - Orbit

View from above orbital plane
View from above orbital plane
View from above satellite
View from above satellite

Ground track
Ground track

The orbit data is extracted from the following two-line orbital elements,

1 42783U 17036U   18112.89446207 +.00001300 +00000-0 +61093-4 0  9991
2 42783 097.4065 173.5099 0010755 270.0260 089.9744 15.21331698046107
Epoch (UTC): 22 April 2018 21:28:01
Eccentricity: 0.0010755
inclination: 97.4065°
perigee height: 494 km
apogee height: 509 km
right ascension of ascending node: 173.5099°
argument of perigee: 270.0260°
revolutions per day: 15.21331698
mean anomaly at epoch: 89.9744°
orbit number at epoch: 4610

The dashed part of the orbit path shows where the satellite is in the earth's shadow,  

DLR